Content
SEND FEEDBACK

Daily
Averages
Monthly
Summary
United States of America

MOSCOW, PENNSYLVANIA


Home > North America > United States > Pennsylvania
Elevation: 1360 feet     Latitude: 41 23N     Longitude: 075 26W

WEATHER
 
SELECT A DAY
Number of Records: 213,323;   Date Range: 1/1/95 - 4/16/14
 
SHARE

PRINT THIS DATA

[ ← Previous Day ]
WEATHER ALMANAC - JANUARY 3, 2013
[ Next Day → ]
[ °C ]   °F
Weather ElementAverageHighLow
Temperature23.3 °F28 °F (8:54 pm)15.1 °F (6:54 am)
Dewpoint12.8 °F17.1 °F (10:54 pm)10 °F (5:54 am)
Humidity64.9 %80 % (6:54 am)53 % (2:54 pm)
Barometer30.12 in30.18 in (12:54 am)30.06 in (3:54 pm)
Wind Speed5.9 mph12.7 mph (2:54 pm)
Wind Gust17.3 mph (2:54 pm)
Weather ElementAverage
Visibility9.9 mi
Wind DirectionSSW (187.4 °)

Weather ElementTotal
Precipitation0.01 in
Heating Degree Days43.5 (Base 65)
Averaged from 27 records on January 3, 2013
WEATHER CONDITIONS BREAKOUT
WIND DIRECTION BREAKOUT
WEATHER BY HOUR - JANUARY 3, 2013
[ °C ]   °F
Local TimeTemperatureDewpointHumidityBarometerVisibilityWind DirectionWind SpeedGust SpeedPrecipitationEventsConditions
12:41 AM23.0 °F14.0 °F68 %30.14 in10.0 miCalmOvercast
12:54 AM23.0 °F14.0 °F68 %30.18 in10.0 miCalmOvercast
1:54 AM21.9 °F15.1 °F75 %30.17 in10.0 miCalmOvercast
2:54 AM21.9 °F12.0 °F66 %30.18 in10.0 miNNW (330°)4.6 mphOvercast
3:54 AM19.9 °F12.0 °F71 %30.17 in10.0 miSSW (210°)3.5 mphClear
4:54 AM18.0 °F10.9 °F74 %30.16 in10.0 miCalmClear
5:54 AM17.1 °F10.0 °F74 %30.17 in10.0 miSW (230°)3.5 mphClear
6:54 AM15.1 °F10.0 °F80 %30.17 in10.0 miSSW (200°)3.5 mphScattered Clouds
7:54 AM15.1 °F10.0 °F80 %30.17 in9.0 miSouth (180°)3.5 mphClear
8:54 AM18.0 °F10.9 °F74 %30.17 in9.0 miCalmScattered Clouds
9:54 AM19.9 °F10.9 °F68 %30.17 in10.0 miSW (230°)6.9 mphClear
10:54 AM21.9 °F12.0 °F66 %30.17 in10.0 miSW (220°)6.9 mph0.01 inScattered Clouds
11:15 AM23.0 °F12.2 °F63 %30.12 in10.0 miSW (230°)10.4 mphMostly Cloudy
11:28 AM24.8 °F12.2 °F59 %30.11 in10.0 miSW (230°)9.2 mphScattered Clouds
11:54 AM24.1 °F12.9 °F62 %30.13 in10.0 miSSW (210°)6.9 mphClear
12:54 PM25.0 °F12.0 °F58 %30.09 in10.0 miSW (230°)10.4 mphClear
1:54 PM25.0 °F10.9 °F55 %30.08 in10.0 miSW (220°)9.2 mphClear
2:54 PM27.0 °F12.0 °F53 %30.07 in10.0 miSSW (210°)12.7 mph17.3 mphPartly Cloudy
3:54 PM26.1 °F10.9 °F53 %30.06 in10.0 miSW (230°)9.2 mphScattered Clouds
4:54 PM26.1 °F12.0 °F55 %30.07 in10.0 miSW (230°)8.1 mphOvercast
5:54 PM27.0 °F12.9 °F56 %30.07 in10.0 miSSW (210°)3.5 mphOvercast
6:54 PM27.0 °F15.1 °F61 %30.08 in10.0 miWSW (250°)6.9 mphOvercast
7:54 PM27.0 °F15.1 °F61 %30.08 in10.0 miSW (230°)8.1 mphOvercast
8:54 PM28.0 °F16.0 °F61 %30.07 in10.0 miWSW (240°)6.9 mphOvercast
9:54 PM28.0 °F16.0 °F61 %30.06 in10.0 miWSW (250°)9.2 mphOvercast
10:54 PM28.0 °F17.1 °F63 %30.06 in10.0 miWest (260°)9.2 mphMostly Cloudy
11:54 PM27.0 °F17.1 °F66 %30.06 in10.0 miSW (230°)5.8 mphOvercast
Hourly data recorded from KAVP, located 15.74 miles away from Moscow, Pennsylvania







STORIES FROM OUR PARTNERS